RADUGA 19 [-]

Last updated on June 24, 2019, 3:40 a.m. UTC

1 17046U 86082A   19174.20157461 -.00000201  00000-0  00000+0 0  9993
2 17046  14.6379 345.4499 0009547 107.6385  70.4425  0.98462243117833
UTC
Height (km)
Latitude
Longitude
Inclination
Orbital Period
UTC large
Height (km)
Speed (km/s)
/
Latitude / Longitude
Inclination (degrees)
Orbital Period (minutes)
Azimuth
Elevation
Range (km)
Doppler Factor
iOS Compass Heading
iOS Angle

Next 30 passes for location: Hong Kong

Rise time Rise Azimuth (degrees) Set time Set Azimuth (degrees) Duration Max altitude (degrees)

No matching passes for this satellites